Snowfall_Accumulation
0.0 0.0 0.0 0.0 0.0 0.0 0.0 0.0 9.6 0.0 0.0 0.2 13.1 9.5 3.0 0.0 0.0 0.0 0.0 0.0 0.9 1.6 1.3 1.7 5.6 6.6 1.7 0.2 0.0 0.3 0.4 11.7 15.1 10.5 5.4 4.6 6.3 8.7 9.5 21.1 16.1 10.5 11.6 13.6
0.0 0.0 0.0 0.0 0.0 0.0 0.0 0.0 1.9 0.0 0.0 12.2 6.9 0.0 2.1 3.9 0.0 0.0 0.0 0.2 0.1 0.1 1.6 2.4 1.1 2.9 0.0 0.0 0.0 1.9 0.1 7.7 13.4 12.2 7.1 1.6 8.7 7.5 8.7 11.4 16.2 18.7 16.4 15.6
0.0 0.0 0.0 0.0 0.0 0.0 0.0 0.0 12.1 0.0 0.0 0.0 2.7 4.8 6.4 2.2 0.0 0.0 0.1 0.5 0.0 1.3 0.3 0.1 1.3 6.8 0.0 0.0 0.0 0.2 0.4 7.8 11.8 11.0 8.2 6.2 10.4 4.9 8.3 16.7 19.4 11.8 16.4 10.6
0.0 0.0 0.0 0.0 0.0 0.0 0.0 0.1 7.3 0.1 5.1 3.0 0.0 0.5 1.1 0.6 2.7 0.0 0.0 0.0 1.2 4.9 3.3 0.7 0.3 3.6 2.8 0.0 0.0 0.0 0.7 12.5 5.7 4.4 2.3 3.8 4.9 5.4 6.1 14.1 10.2 10.0 9.0 5.7
0.0 0.0 0.0 0.0 0.0 0.0 0.0 2.7 3.6 1.6 0.1 0.0 0.2 0.8 0.8 0.6 0.1 0.6 0.6 0.6 0.3 2.3 3.9 4.4 2.6 1.9 3.6 3.7 0.0 0.1 0.4 7.5 6.9 5.6 0.0 2.4 4.1 0.8 2.3 2.3 4.1 4.8 3.1 4.0
0.0 0.0 0.0 0.0 0.0 0.0 0.1 0.0 0.3 6.1 0.7 0.7 1.7 2.4 0.5 0.3 0.6 0.1 0.3 0.8 2.0 1.3 1.1 0.7 0.3 0.2 0.2 0.6 0.2 0.0 0.1 4.8 7.5 6.4 2.7 0.7 4.0 4.1 0.9 1.9 2.4 2.7 5.6 3.5
0.0 0.0 0.0 0.0 0.0 0.0 0.0 0.0 2.4 10.1 6.8 1.4 1.1 0.9 0.4 0.2 0.2 0.9 0.0 0.5 2.4 0.2 0.1 0.0 0.0 0.0 0.0 0.2 0.2 0.1 0.4 2.4 6.5 5.6 1.6 4.1 0.4 0.0 0.4 0.5 0.9 1.0 1.1 1.5
0.0 0.0 0.0 0.0 0.0 0.0 0.0 0.0 3.8 12.2 11.0 1.4 0.6 0.1 0.0 0.0 0.0 0.1 0.1 0.1 0.5 0.0 0.3 3.0 2.1 0.4 0.2 0.2 0.1 0.2 0.6 3.2 8.8 6.6 2.5 0.6 0.1 0.1 0.4 1.9 1.1 0.1 0.4 0.3
0.0 0.0 0.0 0.0 0.0 0.0 0.0 0.0 0.0 9.7 13.7 1.2 0.6 0.6 0.2 1.4 1.2 0.0 0.1 0.0 0.0 0.0 3.1 4.5 4.9 4.1 0.6 0.8 0.0 0.1 0.6 2.2 5.0 4.0 4.5 1.2 0.9 0.0 0.0 0.1 1.6 0.0 0.0 0.1
0.0 0.0 0.0 0.0 0.0 0.0 0.0 0.0 0.0 14.4 19.6 1.2 1.2 2.2 3.4 1.8 3.2 5.9 0.4 0.9 1.9 0.1 3.2 6.8 5.3 2.1 0.6 2.3 0.9 0.6 0.9 3.2 5.9 3.3 4.6 1.2 0.1 0.1 0.0 1.4 0.5 0.0 0.1 0.2
0.0 0.0 0.0 0.0 0.0 0.0 0.0 0.0 0.0 13.3 19.8 4.9 0.6 2.6 4.9 6.3 5.7 8.6 1.7 3.5 4.1 6.3 8.0 6.3 3.1 3.5 2.8 2.1 0.9 2.0 3.1 4.6 2.6 2.0 3.0 1.8 0.2 0.6 2.1 1.8 1.0 0.1 0.5 0.3
0.0 0.0 0.0 0.0 0.0 0.0 0.0 2.0 0.0 0.0 15.3 5.8 0.0 0.0 0.0 5.9 6.2 9.5 6.6 4.0 2.2 6.0 7.7 7.9 5.2 3.5 3.4 2.3 1.9 1.0 4.7 4.8 5.2 3.9 1.7 1.2 1.8 5.1 4.8 5.0 5.2 2.3 2.6 1.1
0.0 0.0 0.0 0.0 0.0 0.0 0.0 0.0 0.0 0.0 8.6 3.5 1.0 1.6 0.0 0.0 0.0 0.2 17.5 1.6 6.7 6.6 5.2 10.2 8.9 6.8 1.8 2.1 3.1 2.1 1.3 2.1 4.8 5.7 3.9 3.9 5.0 5.4 4.9 5.4 5.9 5.0 4.2 2.6
0.0 0.0 0.0 0.0 0.0 0.0 0.0 0.0 0.0 0.2 4.0 6.7 2.3 0.1 0.1 0.0 0.0 0.0 0.4 8.2 4.8 7.9 5.4 18.3 10.9 6.7 2.1 3.5 4.8 3.6 3.8 2.6 3.3 3.4 6.2 6.0 3.2 5.7 6.8 6.3 4.8 6.4 5.8 5.6
0.0 0.0 0.0 0.0 0.0 0.0 0.0 0.0 0.0 0.0 4.2 4.9 1.4 0.2 0.0 0.0 0.0 0.0 0.1 5.3 12.4 17.8 20.6 20.1 14.5 6.4 6.5 6.6 2.9 7.9 10.4 12.0 11.6 8.4 9.3 12.8 12.4 10.6 8.1 7.2 10.2 12.9 8.8 6.6
0.0 0.0 0.0 0.0 0.0 0.0 0.0 0.5 0.0 0.0 0.0 10.9 4.6 0.0 0.0 0.0 0.1 0.5 0.9 3.8 10.7 15.7 17.1 15.1 13.2 9.1 8.4 11.4 9.1 8.8 10.2 11.2 15.4 15.4 14.1 15.5 16.4 15.0 13.7 14.9 15.5 12.7 12.8 13.2
0.0 0.0 0.0 0.0 0.0 0.0 1.1 0.4 0.0 0.0 0.0 10.4 8.5 1.2 0.0 0.0 0.9 1.8 2.5 3.8 7.3 11.1 11.6 10.9 7.1 6.9 7.7 9.8 11.7 12.9 12.9 15.2 14.2 14.0 10.0 12.2 16.5 21.2 17.5 15.6 17.7 12.4 13.4 13.8
0.0 0.0 0.0 0.0 0.0 0.0 0.4 0.2 0.2 0.2 0.5 6.7 17.8 3.2 0.2 1.6 4.5 5.1 2.7 5.1 3.4 6.9 7.9 7.3 5.2 4.9 6.7 12.3 10.7 10.5 10.0 7.4 8.7 11.1 10.9 13.6 10.5 9.1 10.3 10.8 9.2 6.4 8.1 7.7
0.0 0.0 0.0 0.0 0.0 1.3 0.0 0.0 0.2 0.7 0.4 18.0 9.5 5.1 4.1 0.4 1.5 3.6 4.4 3.3 14.6 7.2 8.4 4.7 4.2 8.0 13.1 12.5 9.9 9.1 9.3 10.2 12.7 8.2 6.1 4.3 4.3 4.9 5.1 3.5 3.1 3.5 4.2 2.9
0.0 0.0 0.0 5.1 0.1 0.0 0.0 0.2 8.0 13.8 13.0 12.7 5.7 1.4 6.5 1.6 1.6 4.7 8.3 7.0 8.9 15.0 6.0 1.9 8.8 10.4 8.1 8.4 8.7 8.1 6.6 5.9 4.4 2.4 3.5 2.1 1.8 0.9 0.5 0.4 0.1 0.4 0.4 0.3
0.0 4.0 3.2 0.0 0.0 0.1 4.8 14.1 13.3 10.6 14.5 6.9 3.9 2.3 4.4 1.5 12.3 10.9 7.5 15.2 7.1 10.8 6.1 6.5 7.1 6.8 7.6 6.4 5.3 4.1 3.1 2.4 1.5 0.8 1.1 0.2 0.1 0.0 0.0 0.0 0.0 0.0 0.0 0.3
0.0 0.3 0.7 1.5 8.7 10.4 12.1 9.9 7.1 8.0 6.7 3.6 3.3 2.0 4.4 6.8 7.6 15.6 13.1 12.9 14.6 10.3 3.7 9.9 6.6 8.2 6.6 5.4 3.6 2.2 1.1 0.8 0.1 0.1 0.0 0.0 0.2 0.0 0.0 0.2 0.3 0.7 0.7 0.4
2.9 4.3 15.0 12.0 11.1 14.0 8.6 2.3 3.8 6.2 5.9 4.1 3.6 6.8 4.1 6.0 11.3 13.6 16.6 19.4 14.5 8.2 15.1 9.1 9.2 8.1 5.6 3.9 1.9 0.8 0.7 0.5 0.6 0.7 0.6 0.2 0.2 0.2 0.3 0.3 0.1 0.4 0.3 0.2
10.3 32.1 23.2 8.8 7.4 3.5 4.0 3.2 3.2 2.3 1.9 1.9 4.9 5.6 5.3 3.7 9.5 11.3 14.1 10.4 8.8 10.3 8.0 7.8 9.5 7.8 4.5 1.8 2.0 2.1 1.6 0.8 1.3 1.1 1.0 0.8 0.3 0.2 0.2 0.2 0.6 0.6 0.5 0.4
32.3 22.7 12.5 3.6 1.1 1.1 1.4 1.7 2.1 1.4 2.1 4.6 3.7 2.9 3.6 4.0 7.0 7.1 9.0 9.7 6.0 5.9 9.3 10.7 8.8 7.1 5.6 3.2 3.8 4.8 7.2 5.5 5.4 3.5 3.1 2.7 2.2 2.0 1.7 1.1 1.0 0.7 0.3 0.2
32.8 20.5 6.1 0.4 0.5 0.4 0.4 0.8 1.5 0.3 1.1 1.6 3.9 6.2 6.1 4.3 5.1 7.0 3.8 4.2 7.5 10.4 8.6 4.3 1.6 2.7 3.5 2.3 2.7 4.3 6.1 6.4 7.2 4.8 3.7 2.8 3.7 3.3 3.2 2.3 1.9 1.6 1.1 0.9
34.7 8.6 0.0 0.6 0.5 0.8 0.8 0.4 0.3 0.3 3.1 5.2 9.8 12.8 4.6 6.5 6.6 4.3 3.4 6.8 7.8 5.8 3.1 1.6 1.6 2.2 1.4 1.1 0.6 2.1 2.4 2.3 2.0 1.7 2.0 1.9 1.1 1.2 1.2 1.4 2.0 1.6 1.4 0.6